"Period start","avg(HW err(1)/warn(2) (#))","avg(Visibility (m))","avg(Weather code (#))","avg(Precip intensity (mm/h))","min(HW err(1)/warn(2) (#))","max(HW err(1)/warn(2) (#))","std(HW err(1)/warn(2) (#))","med(HW err(1)/warn(2) (#))","min(Visibility (m))","max(Visibility (m))","std(Visibility (m))","med(Visibility (m))","min(Weather code (#))","max(Weather code (#))","std(Weather code (#))","med(Weather code (#))","min(Precip intensity (mm/h))","max(Precip intensity (mm/h))","std(Precip intensity (mm/h))","med(Precip intensity (mm/h))"
2017-02-02 00:00:00,2,29977,4,0.00,2,2,0,2,7749,44522,10817,32412,0,10,5,0,0.00,0.00,0.00,0.00
2017-02-02 00:10:00,2,35465,0,0.00,2,2,0,2,9654,49730,11912,37494,0,0,0,0,0.00,0.00,0.00,0.00
2017-02-02 00:20:00,2,47864,0,0.00,2,2,0,2,40431,50000,3304,49520,0,0,0,0,0.00,0.00,0.00,0.00
2017-02-02 00:30:00,2,32309,0,0.00,2,2,0,2,6998,50000,18845,44086,0,0,0,0,0.00,0.00,0.00,0.00
2017-02-02 00:40:00,2,22592,0,0.00,2,2,0,2,11630,45762,10995,18758,0,0,0,0,0.00,0.00,0.00,0.00
2017-02-02 00:50:00,2,49751,0,0.00,2,2,0,2,48577,50000,476,50000,0,0,0,0,0.00,0.00,0.00,0.00
2017-02-02 01:00:00,2,48673,0,0.00,2,2,0,2,42746,50000,2541,50000,0,0,0,0,0.00,0.00,0.00,0.00
2017-02-02 01:10:00,2,20459,14,0.00,2,2,0,2,11652,25454,3813,21638,0,71,28,0,0.00,0.00,0.00,0.00
2017-02-02 01:20:00,2,9275,74,0.35,2,2,0,2,5501,13872,2552,9170,71,78,3,71,0.05,0.85,0.24,0.28
2017-02-02 01:30:00,2,4848,71,0.77,2,2,0,2,2577,6755,1413,5360,71,71,0,71,0.25,1.60,0.40,0.73
2017-02-02 01:40:00,2,2904,71,1.17,2,2,0,2,2158,3410,341,2894,71,71,0,71,0.70,1.90,0.33,1.12
2017-02-02 01:50:00,2,3543,71,1.36,2,2,0,2,2788,5009,671,3418,71,71,0,71,0.65,2.10,0.44,1.40
2017-02-02 02:00:00,2,3886,71,0.83,2,2,0,2,3138,4541,448,3808,71,71,0,71,0.60,1.10,0.18,0.83
2017-02-02 02:10:00,2,2371,71,1.26,2,2,0,2,1355,3576,798,2311,71,71,0,71,1.05,1.40,0.10,1.25
2017-02-02 02:20:00,2,2031,71,1.94,2,2,0,2,1435,2524,356,2145,71,71,0,71,0.95,3.50,0.81,2.00
2017-02-02 02:30:00,2,2282,71,1.99,2,2,0,2,1985,2855,221,2236,71,71,0,71,1.00,4.10,0.84,1.73
2017-02-02 02:40:00,2,3006,71,0.55,2,2,0,2,2292,3349,326,3018,71,71,0,71,0.30,1.00,0.19,0.50
2017-02-02 02:50:00,2,3158,71,0.53,2,2,0,2,2809,3555,281,3211,71,71,0,71,0.10,1.35,0.38,0.42
2017-02-02 03:00:00,2,3611,74,0.17,2,2,0,2,2753,4387,486,3632,71,77,3,74,0.05,0.40,0.11,0.15
2017-02-02 03:10:00,2,3318,73,0.34,2,2,0,2,2853,4314,428,3156,71,77,3,71,0.15,0.60,0.15,0.33
2017-02-02 03:20:00,2,4611,78,0.17,2,2,0,2,3802,5753,615,4592,77,78,0,78,0.10,0.25,0.04,0.17
2017-02-02 03:30:00,2,7292,75,0.20,2,2,0,2,5067,10473,1874,7108,71,78,3,77,0.10,0.30,0.07,0.20
2017-02-02 03:40:00,2,20654,78,0.03,2,2,0,2,6630,37180,9872,22744,77,78,0,78,0.00,0.15,0.05,0.00
2017-02-02 03:50:00,2,16474,78,0.01,2,2,0,2,9328,24537,4515,15472,78,78,0,78,0.00,0.05,0.02,0.00
2017-02-02 04:00:00,2,6426,78,0.15,2,2,0,2,2827,10459,2019,6664,78,78,0,78,0.05,0.45,0.14,0.08
2017-02-02 04:10:00,2,3076,74,0.49,2,2,0,2,1998,4846,1005,2627,71,77,3,74,0.25,0.80,0.18,0.45
2017-02-02 04:20:00,2,3320,74,0.45,2,2,0,2,2479,3795,443,3425,71,77,3,74,0.30,0.75,0.13,0.45
2017-02-02 04:30:00,2,3151,72,0.52,2,2,0,2,2589,4236,435,3054,71,77,2,71,0.15,0.85,0.18,0.50
2017-02-02 04:40:00,2,5973,72,0.26,2,2,0,2,4263,7041,861,6206,71,77,2,71,0.15,0.55,0.14,0.20
2017-02-02 04:50:00,2,10604,75,0.07,2,2,0,2,5989,16268,3898,9441,71,78,3,77,0.00,0.15,0.05,0.05
2017-02-02 05:00:00,2,24612,74,0.01,2,2,0,2,11498,37087,7810,24396,71,78,3,71,0.00,0.05,0.02,0.00
2017-02-02 05:10:00,2,20108,0,0.00,2,2,0,2,12535,28806,5509,19618,0,0,0,0,0.00,0.00,0.00,0.00
2017-02-02 05:20:00,2,36800,0,0.00,2,2,0,2,21874,50000,9900,34340,0,0,0,0,0.00,0.00,0.00,0.00
2017-02-02 05:30:00,2,30326,0,0.00,2,2,0,2,11679,50000,14354,28586,0,0,0,0,0.00,0.00,0.00,0.00
2017-02-02 05:40:00,2,10350,1,0.00,2,2,0,2,3103,20341,5704,10087,0,10,3,0,0.00,0.00,0.00,0.00
2017-02-02 05:50:00,2,9373,10,0.00,2,2,0,2,2428,19863,6447,7612,10,10,0,10,0.00,0.00,0.00,0.00
2017-02-02 06:00:00,2,3435,10,0.00,2,2,0,2,2342,7353,1400,3170,10,10,0,10,0.00,0.00,0.00,0.00
2017-02-02 06:10:00,2,6430,10,0.00,2,2,0,2,2214,16703,4664,4090,10,10,0,10,0.00,0.00,0.00,0.00
2017-02-02 06:20:00,2,2552,46,0.38,2,2,0,2,546,5075,1493,2675,0,71,31,71,0.00,3.75,1.12,0.00
2017-02-02 06:30:00,2,2262,56,0.02,2,2,0,2,1036,4200,932,2040,10,78,30,74,0.00,0.05,0.02,0.00
2017-02-02 06:40:00,2,4645,78,0.01,2,2,0,2,2184,9310,1795,4226,78,78,0,78,0.00,0.05,0.02,0.00
2017-02-02 06:50:00,2,5174,78,0.05,2,2,0,2,2258,9491,2358,4186,77,78,0,78,0.00,0.15,0.05,0.05
2017-02-02 07:00:00,2,3593,77,0.05,2,2,0,2,1040,6495,1976,3222,77,78,0,77,0.00,0.10,0.03,0.05
2017-02-02 07:10:00,2,6251,78,0.01,2,2,0,2,1454,10394,2593,6341,78,78,0,78,0.00,0.05,0.02,0.00
2017-02-02 07:20:00,2,13086,70,0.00,2,2,0,2,6165,26036,5948,12984,0,78,23,78,0.00,0.00,0.00,0.00
2017-02-02 07:30:00,2,11554,8,0.00,2,2,0,2,3812,16247,4267,13016,0,10,4,10,0.00,0.00,0.00,0.00
2017-02-02 07:40:00,2,5904,10,0.00,2,2,0,2,3643,10593,2081,5436,10,10,0,10,0.00,0.00,0.00,0.00
2017-02-02 07:50:00,2,6426,10,0.00,2,2,0,2,3627,9151,1664,6444,10,10,0,10,0.00,0.00,0.00,0.00
2017-02-02 08:00:00,2,15329,10,0.00,2,2,0,2,9346,27650,6210,12653,10,10,0,10,0.00,0.00,0.00,0.00
2017-02-02 08:10:00,2,32100,0,0.00,2,2,0,2,9786,50000,13944,28568,0,0,0,0,0.00,0.00,0.00,0.00
2017-02-02 08:20:00,2,42536,0,0.00,2,2,0,2,18162,50000,10650,49024,0,0,0,0,0.00,0.00,0.00,0.00
2017-02-02 08:30:00,2,49968,0,0.00,2,2,0,2,49685,50000,94,50000,0,0,0,0,0.00,0.00,0.00,0.00
2017-02-02 08:40:00,2,50000,0,0.00,2,2,0,2,50000,50000,0,50000,0,0,0,0,0.00,0.00,0.00,0.00
2017-02-02 08:50:00,2,50000,0,0.00,2,2,0,2,50000,50000,0,50000,0,0,0,0,0.00,0.00,0.00,0.00
2017-02-02 09:00:00,2,49892,0,0.00,2,2,0,2,48922,50000,323,50000,0,0,0,0,0.00,0.00,0.00,0.00
2017-02-02 09:10:00,2,46573,0,0.00,2,2,0,2,36460,50000,4799,49270,0,0,0,0,0.00,0.00,0.00,0.00
2017-02-02 09:20:00,2,36249,0,0.00,2,2,0,2,30840,42232,3498,37020,0,0,0,0,0.00,0.00,0.00,0.00
2017-02-02 09:30:00,2,36056,0,0.00,2,2,0,2,25921,44572,6651,37854,0,0,0,0,0.00,0.00,0.00,0.00
2017-02-02 09:40:00,2,36569,0,0.00,2,2,0,2,25664,47003,6652,37242,0,0,0,0,0.00,0.00,0.00,0.00
2017-02-02 09:50:00,2,42564,0,0.00,2,2,0,2,36879,49915,3884,42471,0,0,0,0,0.00,0.00,0.00,0.00
2017-02-02 10:00:00,2,49514,0,0.00,2,2,0,2,47746,50000,847,50000,0,0,0,0,0.00,0.00,0.00,0.00
2017-02-02 10:10:00,2,49639,0,0.00,2,2,0,2,46517,50000,1041,50000,0,0,0,0,0.00,0.00,0.00,0.00
2017-02-02 10:20:00,2,48885,0,0.00,2,2,0,2,46916,50000,1075,49116,0,0,0,0,0.00,0.00,0.00,0.00
2017-02-02 10:30:00,2,49989,0,0.00,2,2,0,2,49888,50000,34,50000,0,0,0,0,0.00,0.00,0.00,0.00
2017-02-02 10:40:00,2,48024,0,0.00,2,2,0,2,43360,50000,2246,48745,0,0,0,0,0.00,0.00,0.00,0.00
2017-02-02 10:50:00,2,49643,0,0.00,2,2,0,2,48565,50000,527,50000,0,0,0,0,0.00,0.00,0.00,0.00
2017-02-02 11:00:00,2,50000,0,0.00,2,2,0,2,50000,50000,0,50000,0,0,0,0,0.00,0.00,0.00,0.00
2017-02-02 11:10:00,2,50000,0,0.00,2,2,0,2,50000,50000,0,50000,0,0,0,0,0.00,0.00,0.00,0.00
2017-02-02 11:20:00,2,49814,0,0.00,2,2,0,2,48142,50000,557,50000,0,0,0,0,0.00,0.00,0.00,0.00
2017-02-02 11:30:00,2,46194,0,0.00,2,2,0,2,37624,50000,4150,47968,0,0,0,0,0.00,0.00,0.00,0.00
2017-02-02 11:40:00,2,42927,0,0.00,2,2,0,2,33829,49136,4907,43741,0,0,0,0,0.00,0.00,0.00,0.00
2017-02-02 11:50:00,2,39373,0,0.00,2,2,0,2,30217,45407,4238,39748,0,0,0,0,0.00,0.00,0.00,0.00
2017-02-02 12:00:00,2,38714,0,0.00,2,2,0,2,25395,50000,8261,38547,0,0,0,0,0.00,0.00,0.00,0.00
2017-02-02 12:10:00,2,43567,0,0.00,2,2,0,2,34415,50000,4819,44416,0,0,0,0,0.00,0.00,0.00,0.00
2017-02-02 12:20:00,2,41640,0,0.00,2,2,0,2,33335,50000,5274,39402,0,0,0,0,0.00,0.00,0.00,0.00
2017-02-02 12:30:00,2,33044,0,0.00,2,2,0,2,23425,49159,8388,30029,0,0,0,0,0.00,0.00,0.00,0.00
2017-02-02 12:40:00,2,48967,0,0.00,2,2,0,2,45966,50000,1327,49436,0,0,0,0,0.00,0.00,0.00,0.00
2017-02-02 12:50:00,2,49646,0,0.00,2,2,0,2,48004,50000,716,50000,0,0,0,0,0.00,0.00,0.00,0.00
2017-02-02 13:00:00,2,45939,0,0.00,2,2,0,2,18645,50000,9161,49156,0,0,0,0,0.00,0.00,0.00,0.00
2017-02-02 13:10:00,2,17680,6,0.00,2,2,0,2,3031,38079,12347,18266,0,10,5,10,0.00,0.00,0.00,0.00
2017-02-02 13:20:00,2,33933,3,0.00,2,2,0,2,30580,39794,2720,33404,0,10,5,0,0.00,0.00,0.00,0.00
2017-02-02 13:30:00,2,44980,0,0.00,2,2,0,2,34825,50000,5179,47259,0,0,0,0,0.00,0.00,0.00,0.00
2017-02-02 13:40:00,2,49979,0,0.00,2,2,0,2,49792,50000,62,50000,0,0,0,0,0.00,0.00,0.00,0.00
2017-02-02 13:50:00,2,49507,0,0.00,2,2,0,2,48019,50000,772,50000,0,0,0,0,0.00,0.00,0.00,0.00
2017-02-02 14:00:00,2,49674,0,0.00,2,2,0,2,48690,50000,512,50000,0,0,0,0,0.00,0.00,0.00,0.00
2017-02-02 14:10:00,2,50000,0,0.00,2,2,0,2,50000,50000,0,50000,0,0,0,0,0.00,0.00,0.00,0.00
2017-02-02 14:20:00,2,48931,0,0.00,2,2,0,2,45694,50000,1663,50000,0,0,0,0,0.00,0.00,0.00,0.00
2017-02-02 14:30:00,2,48835,0,0.00,2,2,0,2,46212,50000,1446,49882,0,0,0,0,0.00,0.00,0.00,0.00
2017-02-02 14:40:00,2,48118,0,0.00,2,2,0,2,41028,50000,3054,50000,0,0,0,0,0.00,0.00,0.00,0.00
2017-02-02 14:50:00,2,49843,0,0.00,2,2,0,2,48430,50000,471,50000,0,0,0,0,0.00,0.00,0.00,0.00
2017-02-02 15:00:00,2,50000,0,0.00,2,2,0,2,50000,50000,0,50000,0,0,0,0,0.00,0.00,0.00,0.00
2017-02-02 15:10:00,2,49997,0,0.00,2,2,0,2,49971,50000,9,50000,0,0,0,0,0.00,0.00,0.00,0.00
2017-02-02 15:20:00,2,48922,0,0.00,2,2,0,2,44101,50000,1994,50000,0,0,0,0,0.00,0.00,0.00,0.00
2017-02-02 15:30:00,2,50000,0,0.00,2,2,0,2,50000,50000,0,50000,0,0,0,0,0.00,0.00,0.00,0.00
2017-02-02 15:40:00,2,49618,0,0.00,2,2,0,2,48459,50000,594,50000,0,0,0,0,0.00,0.00,0.00,0.00
2017-02-02 15:50:00,2,50000,0,0.00,2,2,0,2,50000,50000,0,50000,0,0,0,0,0.00,0.00,0.00,0.00
2017-02-02 16:00:00,2,50000,0,0.00,2,2,0,2,50000,50000,0,50000,0,0,0,0,0.00,0.00,0.00,0.00
2017-02-02 16:10:00,2,49908,0,0.00,2,2,0,2,49455,50000,188,50000,0,0,0,0,0.00,0.00,0.00,0.00
2017-02-02 16:20:00,2,49793,0,0.00,2,2,0,2,48706,50000,430,50000,0,0,0,0,0.00,0.00,0.00,0.00
2017-02-02 16:30:00,2,50000,0,0.00,2,2,0,2,50000,50000,0,50000,0,0,0,0,0.00,0.00,0.00,0.00
2017-02-02 16:40:00,2,49783,0,0.00,2,2,0,2,47833,50000,650,50000,0,0,0,0,0.00,0.00,0.00,0.00
2017-02-02 16:50:00,2,47575,0,0.00,2,2,0,2,39884,50000,3353,49126,0,0,0,0,0.00,0.00,0.00,0.00
2017-02-02 17:00:00,2,48592,0,0.00,2,2,0,2,44621,50000,1987,49578,0,0,0,0,0.00,0.00,0.00,0.00
2017-02-02 17:10:00,2,49937,0,0.00,2,2,0,2,49511,50000,148,50000,0,0,0,0,0.00,0.00,0.00,0.00
2017-02-02 17:20:00,2,50000,0,0.00,2,2,0,2,50000,50000,0,50000,0,0,0,0,0.00,0.00,0.00,0.00
2017-02-02 17:30:00,2,49842,0,0.00,2,2,0,2,48417,50000,475,50000,0,0,0,0,0.00,0.00,0.00,0.00
2017-02-02 17:40:00,2,49131,0,0.00,2,2,0,2,46014,50000,1420,50000,0,0,0,0,0.00,0.00,0.00,0.00
2017-02-02 17:50:00,2,49097,0,0.00,2,2,0,2,46518,50000,1209,50000,0,0,0,0,0.00,0.00,0.00,0.00
2017-02-02 18:00:00,2,49738,0,0.00,2,2,0,2,48674,50000,524,50000,0,0,0,0,0.00,0.00,0.00,0.00
2017-02-02 18:10:00,2,44749,0,0.00,2,2,0,2,35807,50000,5479,46320,0,0,0,0,0.00,0.00,0.00,0.00
2017-02-02 18:20:00,2,41710,0,0.00,2,2,0,2,29367,50000,7112,43862,0,0,0,0,0.00,0.00,0.00,0.00
2017-02-02 18:30:00,2,37303,0,0.00,2,2,0,2,21452,50000,11029,39090,0,0,0,0,0.00,0.00,0.00,0.00
2017-02-02 18:40:00,2,31964,0,0.00,2,2,0,2,25312,43882,5946,30178,0,0,0,0,0.00,0.00,0.00,0.00
2017-02-02 18:50:00,2,38209,0,0.00,2,2,0,2,26891,50000,9079,34589,0,0,0,0,0.00,0.00,0.00,0.00
2017-02-02 19:00:00,2,49000,0,0.00,2,2,0,2,47066,50000,1089,49264,0,0,0,0,0.00,0.00,0.00,0.00
2017-02-02 19:10:00,2,48566,0,0.00,2,2,0,2,46419,50000,1281,48571,0,0,0,0,0.00,0.00,0.00,0.00
2017-02-02 19:20:00,2,47663,0,0.00,2,2,0,2,42430,50000,2594,48232,0,0,0,0,0.00,0.00,0.00,0.00
2017-02-02 19:30:00,2,47901,0,0.00,2,2,0,2,43194,50000,2285,48830,0,0,0,0,0.00,0.00,0.00,0.00
2017-02-02 19:40:00,2,49937,0,0.00,1,2,0,2,49823,50000,79,50000,0,0,0,0,0.00,0.00,0.00,0.00
2017-02-02 19:50:00,1,0,,0.00,1,2,0,1,0,0,0,0,,,,,0.00,0.00,0.00,0.00
2017-02-02 20:00:00,1,34471,,0.00,1,2,0,1,0,50000,20133,43942,,,,,0.00,0.00,0.00,0.00
2017-02-02 20:10:00,2,40047,0,0.00,1,2,0,2,0,50000,15259,46671,0,0,0,0,0.00,0.00,0.00,0.00
2017-02-02 20:20:00,1,45311,0,0.00,1,2,0,1,45311,45311,0,45311,0,0,0,0,0.00,0.00,0.00,0.00
2017-02-02 20:30:00,1,,,,1,1,0,1,,,,,,,,,,,,
2017-02-02 20:40:00,1,,,,1,1,0,1,,,,,,,,,,,,
2017-02-02 20:50:00,1,,,,1,1,0,1,,,,,,,,,,,,
2017-02-02 21:00:00,1,,,,1,1,0,1,,,,,,,,,,,,
2017-02-02 21:10:00,1,,,,1,1,0,1,,,,,,,,,,,,
2017-02-02 21:20:00,1,,,,1,1,0,1,,,,,,,,,,,,
2017-02-02 21:30:00,1,,,,1,1,0,1,,,,,,,,,,,,
2017-02-02 21:40:00,1,,,,1,1,0,1,,,,,,,,,,,,
2017-02-02 21:50:00,1,,,,1,1,0,1,,,,,,,,,,,,
2017-02-02 22:00:00,1,,,,1,1,0,1,,,,,,,,,,,,
2017-02-02 22:10:00,1,,,,1,1,0,1,,,,,,,,,,,,
2017-02-02 22:20:00,1,,,,1,1,0,1,,,,,,,,,,,,
2017-02-02 22:30:00,1,,,,1,1,0,1,,,,,,,,,,,,
2017-02-02 22:40:00,1,,,,1,1,0,1,,,,,,,,,,,,
2017-02-02 22:50:00,1,,,,1,1,0,1,,,,,,,,,,,,
2017-02-02 23:00:00,1,,,,1,1,0,1,,,,,,,,,,,,
2017-02-02 23:10:00,1,,,,1,1,0,1,,,,,,,,,,,,
2017-02-02 23:20:00,1,,,,1,1,0,1,,,,,,,,,,,,
2017-02-02 23:30:00,1,,,,1,1,0,1,,,,,,,,,,,,
2017-02-02 23:40:00,1,,,,1,1,0,1,,,,,,,,,,,,
2017-02-02 23:50:00,1,,,,1,1,0,1,,,,,,,,,,,,
